Location: Atherton
(17.2661°S, 145.4859°E)
Time: 00:24:12
(UTC+10:00)

Vanguard 1 - Pass Details

Date: 24 June 2025
Orbit: 649 x 3822 km, 34.2° (Epoch: 17 July)

Event Time Altitude Azimuth Distance (km) Brightness Sun altitude
Rises 15:43:57 0° 326° (NW) 7,860 15.8 25.8°
Reaches altitude 10° 15:49:56 10° 332° (NNW) 6,910 15.7 24.7°
Maximum altitude 16:10:47 42° 36° (NE) 4,216 13.5 20.6°
Drops below altitude 10° 16:25:32 10° 100° (E) 5,080 13.2 17.7°
Sets 16:29:01 0° 107° (ESE) 5,713 13.4 17.0°
